Indianapolis, IN

6:05 AM EDT on May 21, 2018 (GMT -0400)
Indianapolis International

Weather History for KIND - November, 2014

Change the Weather History Date:

Friday, November 7, 2014

  Actual Average Record
Temperature  
Mean Temperature 40 °F 48 °F  
Max Temperature 46 °F 57 °F 76 °F (1915)
Min Temperature 33 °F 38 °F 16 °F (1971)
Degree Days  
Heating Degree Days 25 18  
Month to date heating degree days 147 115  
Since 1 July heating degree days 561 516  
Cooling Degree Days 0 0  
Month to date cooling degree days 0 0  
Year to date cooling degree days 900 1065  
Moisture  
Dew Point 28 °F    
Average Humidity 66    
Maximum Humidity 82    
Minimum Humidity 49    
Precipitation  
Precipitation 0.00 in 0.11 in 3.51 in (1996)
Month to date precipitation 0.39 0.81  
Year to date precipitation 36.61 36.38  
Snow  
Snow 0.00 in 0.00 in 1.20 in (1992)
Month to date snowfall 0.0 0.1  
Since 1 July snowfall 0.1 0.5  
Since 1 September snowfall 0.1 0.5  
Snow Depth 0.00 in    
Sea Level Pressure  
Sea Level Pressure 30.12 in    
Wind  
Wind Speed 7 mph (WSW)    
Max Wind Speed 20 mph    
Max Gust Speed 23 mph    
Visibility 10 miles    
Events      
T = Trace of Precipitation, MM = Missing Value Source: NWS Daily Summary

Daily Weather History Graph

Daily Weather History Graph

Search for Another Location

Airport or City:

Astronomy

Nov. 07, 2014 Rise Set
Actual Time 7:20 AM EST 5:36 PM EST
Civil Twilight 6:52 AM EST 6:04 PM EST
Nautical Twilight 6:20 AM EST 6:37 PM EST
Astronomical Twilight 5:48 AM EST 7:08 PM EST
Moon 6:28 PM EST (11/7) 7:55 AM EST (11/7)
Length of Visible Light 11h 12m
Length of Day
10h 16m
Full, 99% of the Moon is Illuminated
Nov 7
Full
Nov 14
Last Quarter
Nov 22
New
Nov 29
First Quarter
Dec 6
Full

Hourly Weather History & Observations

Time (EST) Temp. Windchill Dew Point Humidity Pressure Visibility Wind Dir Wind Speed Gust Speed Precip Events Conditions
12:54 AM 37.9 °F 29.2 °F 28.9 °F 70% 30.17 in 10.0 mi NW 15.0 mph - N/A   Overcast
1:54 AM 37.0 °F 29.8 °F 28.9 °F 73% 30.17 in 10.0 mi NW 10.4 mph - N/A   Overcast
2:54 AM 37.0 °F 31.0 °F 28.9 °F 73% 30.17 in 10.0 mi WNW 8.1 mph - N/A   Overcast
3:54 AM 36.0 °F 29.0 °F 28.0 °F 73% 30.19 in 10.0 mi WNW 9.2 mph - N/A   Overcast
4:54 AM 35.1 °F 27.9 °F 28.0 °F 76% 30.19 in 10.0 mi WNW 9.2 mph - N/A   Overcast
5:54 AM 34.0 °F 26.6 °F 28.0 °F 79% 30.21 in 10.0 mi WNW 9.2 mph - N/A   Overcast
6:54 AM 33.1 °F 27.7 °F 28.0 °F 82% 30.19 in 10.0 mi WNW 5.8 mph - N/A   Overcast
7:54 AM 35.1 °F 29.3 °F 28.0 °F 76% 30.20 in 10.0 mi West 6.9 mph - N/A   Overcast
8:54 AM 36.0 °F 28.5 °F 28.9 °F 76% 30.23 in 10.0 mi West 10.4 mph - N/A   Mostly Cloudy
9:54 AM 37.9 °F 31.5 °F 28.0 °F 68% 30.23 in 10.0 mi West 9.2 mph - N/A   Mostly Cloudy
10:54 AM 42.1 °F 37.1 °F 28.9 °F 60% 30.21 in 10.0 mi NW 8.1 mph - N/A   Mostly Cloudy
11:54 AM 41.0 °F - 26.1 °F 55% 30.19 in 10.0 mi Calm Calm - N/A   Mostly Cloudy
1:54 PM 44.1 °F 42.5 °F 28.0 °F 53% 30.11 in 10.0 mi SSE 3.5 mph - N/A   Scattered Clouds
2:54 PM 44.1 °F 42.5 °F 27.0 °F 51% 30.10 in 10.0 mi Variable 3.5 mph - N/A   Partly Cloudy
3:54 PM 45.0 °F 43.5 °F 27.0 °F 49% 30.06 in 10.0 mi Variable 3.5 mph - N/A   Partly Cloudy
4:54 PM 44.1 °F 39.0 °F 26.1 °F 49% 30.06 in 10.0 mi South 9.2 mph - N/A   Scattered Clouds
5:54 PM 43.0 °F 39.5 °F 28.0 °F 56% 30.05 in 10.0 mi South 5.8 mph - N/A   Mostly Cloudy
6:54 PM 39.9 °F 34.5 °F 28.0 °F 63% 30.05 in 10.0 mi SSE 8.1 mph - N/A   Mostly Cloudy
7:54 PM 41.0 °F 35.8 °F 28.9 °F 62% 30.03 in 10.0 mi South 8.1 mph - N/A   Mostly Cloudy
8:54 PM 39.9 °F 36.7 °F 28.9 °F 65% 30.04 in 10.0 mi SSW 4.6 mph - N/A   Mostly Cloudy
9:54 PM 37.0 °F 31.0 °F 28.9 °F 73% 30.01 in 10.0 mi SSE 8.1 mph - N/A   Scattered Clouds
10:54 PM 37.0 °F 30.4 °F 28.9 °F 73% 29.98 in 10.0 mi SSE 9.2 mph - N/A   Mostly Cloudy
11:54 PM 37.9 °F 31.5 °F 28.9 °F 70% 29.95 in 10.0 mi SSE 9.2 mph - N/A   Overcast